Location: Ferchesar
(52.6477°N, 12.4298°E)
Time: 17:17:00
(UTC+01:00)

Envisat - Pass Details

Date: 13 October 2022
Orbit: 763 x 765 km, 98.2° (Epoch: 30 November)

Event Time Altitude Azimuth Distance (km) Brightness Sun altitude
Rises 04:42:59 0° 21° (NNE) 3,247 6.9 -26.0°
Reaches altitude 10° 04:45:36 10° 33° (NNE) 2,315 6.2 -25.6°
Maximum altitude 04:50:02 29° 93° (E) 1,373 4.8 -25.0°
Drops below altitude 10° 04:54:26 10° 154° (SSE) 2,299 5.5 -24.4°
Sets 04:57:00 0° 165° (SSE) 3,219 6.2 -24.0°
